Regional Weather Roundup
Issued by NWS

Home | Current Version | Previous Version | Text Only | Print | Product List | Glossary Off
Versions: 1 2 3 4 5 6 7 8 9 10 11 12 13 14 15 16 17 18 19 20 21 22 23 24 25 26 27 28 29 30 31 32 33 34 35 36 37 38 39 40 41 42 43 44 45 46 47 48 49 50

000
ASUS43 KBIS 211802
RWRND

NORTH DAKOTA REGIONAL WEATHER ROUNDUP
NATIONAL WEATHER SERVICE BISMARCK ND
1200 PM CST SAT JAN 21 2017

NOTE: "FAIR" INDICATES FEW OR NO CLOUDS BELOW 12,000 FEET WITH NO
SIGNIFICANT WEATHER AND/OR OBSTRUCTIONS TO VISIBILITY.


NDZ001>003-009>011-017-211900-
NORTHWEST NORTH DAKOTA

CITY           SKY/WX    TMP DP  RH WIND       PRES   REMARKS
WILLISTON      CLOUDY    31  25  78 W13       29.36R
6HR MIN TEMP:  25; 6HR MAX TEMP:  31;

MINOT          CLOUDY    31  27  85 SW6       29.35R FOG
MINOT AFB      CLOUDY    29  27  93 SW3       29.34R
$$

NDZ018>021-031>035-040>046-211900-
SOUTHWEST NORTH DAKOTA

CITY           SKY/WX    TMP DP  RH WIND       PRES   REMARKS
BISMARCK       CLOUDY    30  27  88 W6        29.38S
6HR MIN TEMP:  28; 6HR MAX TEMP:  30; 6HR PCP: TRACE;

DICKINSON      PTSUNNY   31  25  78 W12       29.33R
GARRISON         N/A     23  21  92 W8        29.36R WCI  14
6HR MIN TEMP:  20; 6HR MAX TEMP:  23;

HETTINGER ARPT CLOUDY    33  27  78 NW15      29.37R
$$

NDZ004>008-012>016-024-026-027-054-211900-
NORTHEAST NORTH DAKOTA

CITY           SKY/WX    TMP DP  RH WIND       PRES   REMARKS
GRAND FORKS    CLOUDY    37  33  85 SE5       29.42S
GRND FRKS AFB  CLOUDY    35  35  99 S5        29.42S
DEVILS LAKE    CLOUDY    33  33 100 SE7       29.39S FOG
$$

NDZ022-023-025-028>030-036>039-047>053-211900-
SOUTHEAST NORTH DAKOTA

CITY           SKY/WX    TMP DP  RH WIND       PRES   REMARKS
FARGO          CLOUDY    39  35  86 S3        29.40F
6HR MIN TEMP:  37; 6HR MAX TEMP:  39;

JAMESTOWN      FOG       33  33 100 SE5       29.36S VSB 1/4
$$





USA.gov is the U.S. government's official web portal to all federal, state and local government web resources and services.